User: anonymous
Location: NJAA Observatory
(40.6819°N, 74.8979°W)
Time: 22:11:02
(UTC-04:00)
Language:

Landsat 5 - Orbit

View from above orbital plane
View from above orbital plane
View from above satellite
View from above satellite

Ground track
Ground track

The orbit data is extracted from the following two-line orbital elements,

1 14780U 84021A   14292.81736362  .00003097  00000-0  30740-3 0  4642
2 14780 098.0478 012.2305 0096267 124.0421 349.4894 14.89086481631162
Epoch (UTC): 19 October 2014 19:37:00
Eccentricity: 0.0096267
inclination: 98.0478°
perigee height: 533 km
apogee height: 668 km
right ascension of ascending node: 12.2305°
argument of perigee: 124.0421°
revolutions per day: 14.89086481
mean anomaly at epoch: 349.4894°
orbit number at epoch: 63116

The dashed part of the orbit path shows where the satellite is in the earth's shadow,  

DLR